CST,Max TemperatureF,Mean TemperatureF,Min TemperatureF,Max Dew PointF,MeanDew PointF,Min DewpointF,Max Humidity, Mean Humidity, Min Humidity, Max Sea Level PressureIn, Mean Sea Level PressureIn, Min Sea Level PressureIn, Max VisibilityMiles, Mean VisibilityMiles, Min VisibilityMiles, Max Wind SpeedMPH, Mean Wind SpeedMPH, Max Gust SpeedMPH,PrecipitationIn, CloudCover, Events, WindDirDegrees
2012-1-1,26,20,14,21,15,9,93,85,79,30.27,30.00,29.81,10,3,0,32,21,43,0.00,8,Snow,297
2012-1-2,14,8,3,10,1,-6,86,72,48,30.51,30.42,30.29,10,8,2,23,13,32,0.00,3,Snow,311
2012-1-3,28,16,5,21,7,0,86,66,55,30.27,29.87,29.67,10,10,10,18,9,25,0.00,0,,187
2012-1-4,35,26,17,25,20,14,100,85,56,29.99,29.93,29.84,10,9,0,10,5,,0.00,0,Snow,269
2012-1-5,46,30,14,30,25,14,100,77,46,29.87,29.59,29.44,10,9,1,22,6,29,0.00,0,,237
2012-1-6,37,32,24,30,27,21,100,82,65,29.82,29.63,29.49,10,8,0,24,16,32,0.00,5,Snow,271
2012-1-7,32,24,15,27,21,12,100,83,69,30.07,29.99,29.89,10,10,3,13,6,,0.00,7,Snow,257
2012-1-8,35,24,14,27,20,12,100,81,60,30.16,30.08,29.91,10,10,1,13,3,17,0.00,4,,207
2012-1-9,41,34,26,28,24,19,81,68,52,29.88,29.78,29.72,10,10,10,18,12,26,0.00,1,,261
2012-1-10,42,33,24,30,28,25,100,84,61,29.86,29.69,29.60,10,10,7,10,4,,0.00,1,,210
2012-1-11,33,18,3,32,13,-2,100,84,72,29.93,29.80,29.61,10,8,2,28,14,34,0.02,8,Rain-Snow,307
2012-1-12,8,4,1,3,-2,-4,85,77,72,29.94,29.92,29.90,10,8,3,16,12,22,0.00,8,Snow,326
2012-1-13,5,0,-4,0,-4,-6,92,83,72,29.95,29.92,29.88,10,9,0,9,4,,0.00,6,Snow,312
2012-1-14,17,8,0,14,7,-6,86,83,78,29.96,29.90,29.87,10,8,2,9,4,,0.00,8,Snow,153
2012-1-15,32,21,10,21,19,10,100,84,60,29.95,29.76,29.60,10,8,4,20,7,25,0.00,4,,146
2012-1-16,23,14,5,21,4,-2,93,79,72,30.05,29.91,29.67,10,10,7,20,13,25,0.00,7,Snow,310
2012-1-17,0,-6,-13,-6,-12,-18,85,75,60,30.21,30.16,30.10,10,10,10,14,8,,0.00,1,,306
2012-1-18,0,-6,-13,-6,-13,-20,84,75,70,30.11,29.85,29.67,10,8,0,20,6,23,0.00,6,Snow,48
2012-1-19,-4,-13,-22,-18,-24,-27,76,65,42,30.02,29.98,29.93,10,10,5,13,8,17,0.00,0,,252
2012-1-20,6,-4,-14,-9,-13,-18,84,65,47,30.13,30.05,29.97,10,10,10,12,4,,0.00,0,,255
2012-1-21,14,-1,-16,10,-5,-22,86,76,67,30.13,29.91,29.65,10,10,3,23,5,30,0.00,6,Snow,138
2012-1-22,23,20,17,21,19,14,100,93,86,29.61,29.56,29.53,10,4,1,13,7,17,0.06,8,Snow,138
2012-1-23,21,16,12,19,16,10,100,96,92,29.83,29.66,29.54,10,5,2,17,10,22,0.00,8,Snow,308
2012-1-24,23,16,10,18,11,7,92,81,73,30.13,30.06,29.88,10,10,4,10,6,,0.00,6,,219
2012-1-25,28,20,12,27,24,12,100,98,93,30.10,29.93,29.65,5,4,1,20,7,25,0.00,8,Snow,178
2012-1-26,32,26,21,27,22,14,100,80,55,29.70,29.64,29.58,10,9,5,25,10,30,0.00,3,,254
2012-1-27,30,18,6,23,15,3,100,83,64,29.81,29.71,29.62,10,8,0,17,5,22,0.08,4,Snow,295
2012-1-28,21,18,14,14,12,10,93,76,68,29.89,29.83,29.78,10,8,5,20,13,25,0.00,8,Snow,277
2012-1-29,12,2,-9,1,-4,-15,92,76,53,30.10,30.03,29.91,10,10,10,10,7,,0.00,1,,286
2012-1-30,26,19,12,19,13,9,93,82,69,29.79,29.64,29.57,10,9,3,15,10,,0.00,6,Snow,122
2012-1-31,30,22,15,28,24,14,100,94,80,29.86,29.65,29.49,10,6,1,22,7,22,0.00,7,Snow,279